Date String (YYYY-MM-DD hh:mm:ss) UTC,Instrument flags,absolute air pressure of the measurement (hPa),sample flow rate (lpm),inlet stack bypass flow (lpm),air temperature of the measurement (°C),ambient temperature measured by the external sensor (°C),aerosol sample conditioner tube jacket temperature (°C),OPC LED temperature (°C),internal box temperature (°C),relative humidity of the measurement (%),span deviation,mass concentration of particles derived from Lorenz-Mie calculation of OPC scattering (μg/m³),mass concentration of particles derived from Lorenz-Mie calculation of OPC scattering (μg/m³),mass concentration of particles derived from Lorenz-Mie calculation of OPC scattering (μg/m³)
DateTimeUTC,F1_M11,P_M11,Q1_M11,Q2_M11,T1_M11,T2_M11,T3_M11,T4_M11,T5_M11,U1_M11,ZSPAN_M11,X0_M11,X2_M11,X1_M11
2024-03-30 01:00:00,SystemResetWarning,0824.6,4.99,000.00,020.8,020.0,000.0,029.3,022.6,28.6,0000.0,0002.19,0001.52,0001.18
2024-03-30 01:01:00,SystemResetWarning,0824.7,4.99,000.00,020.8,020.0,000.0,029.3,022.5,28.6,0000.0,0002.16,0001.49,0001.17
2024-03-30 01:02:00,SystemResetWarning,0824.7,5.00,000.00,020.8,020.0,000.0,029.3,022.6,28.6,0000.0,0002.11,0001.46,0001.16
2024-03-30 01:03:00,SystemResetWarning,0824.7,4.99,000.00,020.8,020.0,000.0,029.3,022.6,28.6,0000.0,0002.03,0001.43,0001.15
2024-03-30 01:04:00,SystemResetWarning,0824.8,5.00,000.00,020.7,020.0,000.0,029.3,022.5,28.6,0000.0,0002.31,0001.41,0001.15
2024-03-30 01:05:00,SystemResetWarning,0824.8,5.00,000.00,020.7,020.0,000.0,029.3,022.6,28.6,0000.0,0002.50,0001.41,0001.15
2024-03-30 01:06:00,SystemResetWarning,0824.9,5.00,000.00,020.7,020.0,000.0,029.3,022.6,28.8,0000.0,0002.70,0001.42,0001.16
2024-03-30 01:07:00,SystemResetWarning,0824.9,5.00,000.00,020.7,020.0,000.0,029.3,022.6,28.8,0000.0,0002.66,0001.40,0001.16
2024-03-30 01:08:00,SystemResetWarning,0824.9,5.00,000.00,020.8,020.0,000.0,029.3,022.6,28.6,0000.0,0002.74,0001.43,0001.17
2024-03-30 01:09:00,SystemResetWarning,0824.9,5.01,000.00,020.8,020.0,000.0,029.3,022.6,28.5,0000.0,0002.83,0001.46,0001.20
2024-03-30 01:10:00,SystemResetWarning,0824.9,5.01,000.00,020.8,020.0,000.0,029.3,022.6,28.5,0000.0,0002.95,0001.51,0001.24
2024-03-30 01:11:00,SystemResetWarning,0824.9,5.00,000.00,020.8,020.0,000.0,029.3,022.6,28.5,0000.0,0002.91,0001.52,0001.26
2024-03-30 01:12:00,SystemResetWarning,0824.9,4.99,000.00,020.8,020.0,000.0,029.3,022.6,28.4,0000.0,0002.95,0001.55,0001.28
2024-03-30 01:13:00,SystemResetWarning,0824.8,5.00,000.00,020.8,020.0,000.0,029.3,022.6,28.4,0000.0,0002.99,0001.57,0001.30
2024-03-30 01:14:00,SystemResetWarning,0824.8,4.99,000.00,020.8,020.0,000.0,029.3,022.6,28.4,0000.0,0003.12,0001.62,0001.33
2024-03-30 01:15:00,SystemResetWarning,0824.8,5.00,000.00,020.8,020.0,000.0,029.3,022.5,28.4,0000.0,0002.89,0001.67,0001.36
2024-03-30 01:16:00,SystemResetWarning,0824.9,5.00,000.00,020.7,020.0,000.0,029.3,022.5,28.3,0000.0,0002.72,0001.71,0001.40
2024-03-30 01:17:00,SystemResetWarning,0824.9,5.01,000.00,020.7,020.0,000.0,029.3,022.5,28.3,0000.0,0002.49,0001.72,0001.40
2024-03-30 01:18:00,SystemResetWarning,0824.9,5.00,000.00,020.7,020.0,000.0,029.3,022.5,28.4,0000.0,0002.53,0001.76,0001.44
2024-03-30 01:19:00,SystemResetWarning,0824.9,5.01,000.00,020.7,020.0,000.0,029.3,022.5,28.3,0000.0,0002.53,0001.77,0001.46
2024-03-30 01:20:00,SystemResetWarning,0824.9,5.00,000.00,020.7,020.0,000.0,029.3,022.5,28.2,0000.0,0002.53,0001.80,0001.48
2024-03-30 01:21:00,SystemResetWarning,0824.9,5.00,000.00,020.7,020.0,000.0,029.3,022.5,28.2,0000.0,0002.57,0001.84,0001.50
2024-03-30 01:22:00,SystemResetWarning,0824.9,5.00,000.00,020.7,020.0,000.0,029.3,022.5,28.2,0000.0,0002.76,0001.86,0001.51
2024-03-30 01:23:00,SystemResetWarning,0824.9,4.99,000.00,020.7,020.0,000.0,029.3,022.5,28.3,0000.0,0002.78,0001.88,0001.52
2024-03-30 01:24:00,SystemResetWarning,0824.9,4.99,000.00,020.7,020.0,000.0,029.3,022.5,28.3,0000.0,0002.95,0001.94,0001.53
2024-03-30 01:25:00,SystemResetWarning,0824.9,4.99,000.00,020.7,020.0,000.0,029.3,022.5,28.3,0000.0,0003.04,0001.97,0001.54
2024-03-30 01:26:00,SystemResetWarning,0824.9,5.01,000.00,020.7,020.0,000.0,029.3,022.5,28.5,0000.0,0003.06,0001.99,0001.54
2024-03-30 01:27:00,SystemResetWarning,0824.9,5.02,000.00,020.7,020.0,000.0,029.3,022.6,28.5,0000.0,0003.04,0001.97,0001.53
2024-03-30 01:28:00,SystemResetWarning,0824.9,5.00,000.00,020.7,020.0,000.0,029.3,022.6,28.2,0000.0,0003.10,0001.97,0001.53
2024-03-30 01:29:00,SystemResetWarning,0824.9,4.99,000.00,020.7,020.0,000.0,029.3,022.5,28.1,0000.0,0003.23,0001.99,0001.53
2024-03-30 01:30:00,SystemResetWarning,0824.9,5.00,000.00,020.7,020.0,000.0,029.3,022.5,28.1,0000.0,0003.27,0001.99,0001.54
2024-03-30 01:31:00,SystemResetWarning,0824.9,5.01,000.00,020.7,020.0,000.0,029.3,022.5,28.2,0000.0,0003.21,0001.96,0001.53
2024-03-30 01:32:00,SystemResetWarning,0824.9,5.01,000.00,020.7,020.0,000.0,029.3,022.5,28.1,0000.0,0003.31,0001.96,0001.53
2024-03-30 01:33:00,SystemResetWarning,0824.9,5.01,000.00,020.7,020.0,000.0,029.3,022.5,28.2,0000.0,0003.12,0001.93,0001.53
2024-03-30 01:34:00,SystemResetWarning,0825.0,4.99,000.00,020.7,020.0,000.0,029.3,022.5,28.1,0000.0,0003.11,0001.93,0001.54
2024-03-30 01:35:00,SystemResetWarning,0825.1,4.99,000.00,020.7,020.0,000.0,029.3,022.5,28.0,0000.0,0003.14,0001.94,0001.56
2024-03-30 01:36:00,SystemResetWarning,0825.1,5.00,000.00,020.7,020.0,000.0,029.3,022.5,27.9,0000.0,0003.05,0001.93,0001.59
2024-03-30 01:37:00,SystemResetWarning,0825.1,5.00,000.00,020.7,020.0,000.0,029.3,022.5,27.9,0000.0,0003.10,0001.95,0001.62
2024-03-30 01:38:00,SystemResetWarning,0825.1,5.01,000.00,020.7,020.0,000.0,029.3,022.5,27.9,0000.0,0003.17,0001.98,0001.65
2024-03-30 01:39:00,SystemResetWarning,0825.1,5.00,000.00,020.7,020.1,000.0,029.3,022.5,27.9,0000.0,0003.10,0002.01,0001.70
2024-03-30 01:40:00,SystemResetWarning,0825.2,5.00,000.00,020.7,020.1,000.0,029.3,022.5,27.9,0000.0,0003.00,0002.02,0001.73
2024-03-30 01:41:00,SystemResetWarning,0825.2,5.00,000.00,020.7,020.1,000.0,029.3,022.5,27.9,0000.0,0003.06,0002.07,0001.76
2024-03-30 01:42:00,SystemResetWarning,0825.2,5.00,000.00,020.7,020.1,000.0,029.3,022.5,27.9,0000.0,0003.11,0002.12,0001.80
2024-03-30 01:43:00,SystemResetWarning,0825.2,5.00,000.00,020.7,020.1,000.0,029.3,022.5,27.8,0000.0,0003.07,0002.14,0001.82
2024-03-30 01:44:00,SystemResetWarning,0825.2,4.99,000.00,020.7,020.1,000.0,029.3,022.5,27.8,0000.0,0003.09,0002.18,0001.85
2024-03-30 01:45:00,SystemResetWarning,0825.2,4.99,000.00,020.7,020.1,000.0,029.3,022.5,27.9,0000.0,0003.19,0002.23,0001.88
2024-03-30 01:46:00,SystemResetWarning,0825.2,5.00,000.00,020.7,020.1,000.0,029.3,022.5,27.8,0000.0,0003.14,0002.25,0001.90
2024-03-30 01:47:00,SystemResetWarning,0825.1,5.00,000.00,020.7,020.1,000.0,029.3,022.5,27.9,0000.0,0003.16,0002.26,0001.91
2024-03-30 01:48:00,SystemResetWarning,0825.1,5.00,000.00,020.7,020.1,000.0,029.3,022.5,28.3,0000.0,0004.07,0002.26,0001.92
2024-03-30 01:49:00,SystemResetWarning,0825.1,5.01,000.00,020.7,020.0,000.0,029.3,022.5,28.2,0000.0,0004.47,0002.27,0001.93
2024-03-30 01:50:00,SystemResetWarning,0825.1,5.00,000.00,020.7,020.0,000.0,029.3,022.5,28.1,0000.0,0004.47,0002.29,0001.95
2024-03-30 01:51:00,SystemResetWarning,0825.2,5.00,000.00,020.7,020.0,000.0,029.3,022.5,28.0,0000.0,0004.52,0002.31,0001.97
2024-03-30 01:52:00,SystemResetWarning,0825.2,5.01,000.00,020.7,020.0,000.0,029.3,022.5,27.9,0000.0,0004.60,0002.35,0002.00
2024-03-30 01:53:00,SystemResetWarning,0825.2,5.00,000.00,020.7,020.0,000.0,029.3,022.5,27.9,0000.0,0004.70,0002.38,0002.03
2024-03-30 01:54:00,SystemResetWarning,0825.2,5.00,000.00,020.7,020.0,000.0,029.3,022.6,28.0,0000.0,0004.67,0002.39,0002.04
2024-03-30 01:55:00,SystemResetWarning,0825.2,4.99,000.00,020.7,020.0,000.0,029.3,022.5,28.0,0000.0,0004.68,0002.42,0002.06
2024-03-30 01:56:00,SystemResetWarning,0825.2,5.01,000.00,020.7,020.0,000.0,029.3,022.5,28.0,0000.0,0004.71,0002.48,0002.12
2024-03-30 01:57:00,SystemResetWarning,0825.2,5.01,000.00,020.7,020.0,000.0,029.3,022.5,28.1,0000.0,0004.76,0002.53,0002.16
2024-03-30 01:58:00,SystemResetWarning,0825.2,5.00,000.00,020.7,020.0,000.0,029.3,022.5,28.1,0000.0,0004.87,0002.58,0002.20
2024-03-30 01:59:00,SystemResetWarning,0825.2,5.00,000.00,020.7,020.0,000.0,029.3,022.5,28.1,0000.0,0004.78,0002.65,0002.25
